WELCOME TO TCFT

Voted One Of The Best Flight Schools In The USA

 

 

BECOME AN AIRLINE PILOT

Treasure Coast Flight Training is committed to serving all of your aviation needs as a full service flight academy, aircraft rental facility, and pilot shop

 

 

Questions About Becoming An Airline Pilot?

 

 

What Our Graduates Say

 

 

The training I received with Treasure Coast Flight Training prepared me to become a professional pilot

 

Nathan Meisner

Pilot - Cessna Caravan - USA

Professional yet relaxed environment. Truly an enjoyable experience to fly with TCFT

 

Sophia

Certified Flight Instructor - China

The training I needed to get me to where I am now!

 

Enderson Rafael

Pilot - Go Airlines - Brazil

Thank you TCFT for making me an airline pilot!

 

Kyle Barrett

Pilot - GoJet Airlines - USA

Current Conditions

 

Metar

 

KSUA 230855Z AUTO 00000KT 10SM CLR 25/22 A2987 RMK AO2

 

TAF

 

TAF KSUA 230534Z 2306/2406 22008KT P6SM SCT020 FM230630 29010KT P6SM VCTS SCT020CB BKN120 FM230830 22006KT P6SM SCT025 BKN120 FM231700 23010KT P6SM VCSH SCT025 SCT040 FM231900 25012KT P6SM VCTS SCT040CB BKN250 FM240000 22008KT P6SM SCT020 BKN250

 

 

Look No Further. Get Started Today